Voltar ao catálogo

KL-ALPHA A

AtivoCiênciaPO
NORAD 44785·PAYLOAD·🇩🇪 Germany

Lançado Nov 17, 2019 de Jiuquan Satellite Launch Center

Loading…

Próximas Passagens (próximas 24 horas)

TLE

AtualizadoSource: Space-Track

Época: Sep 14, 2026, 14:59 UTC

1 44785U 19077A   26257.62483084 -.00000044  00000-0 -79942-4 0  9994
2 44785  88.9306 212.7923 0009651 199.0005 161.0790 13.56049246337855

Acompanhe KL-ALPHA A em tempo real com AllMySat

Download on the App Store